Regional Weather Roundup
Issued by NWS Nashville, TN

Home | Current Version | Previous Version | Text Only | Print | Product List | Glossary On
Versions: 1 2 3 4 5 6 7 8 9 10 11 12 13 14 15 16 17 18 19 20 21 22 23 24 25 26 27
000
ASUS44 KOHX 312310
RWROHX
MIDDLE TENNESSEE HOURLY WEATHER ROUNDUP
NATIONAL WEATHER SERVICE NASHVILLE TN
600 PM CDT WED AUG 31 2016

NOTE: "FAIR" INDICATES FEW OR NO CLOUDS BELOW 12,000 FEET WITH
NO SIGNIFICANT WEATHER AND/OR OBSTRUCTIONS TO VISIBILITY.

* THESE REPORTS ARE NOT UNDER NWS QUALITY CONTROL AND MAY NOT
  REPORT WEATHER SUCH AS PRECIPITATION AND FOG.


TNZ005>011-023>034-057-059-062>066-078-080-010000
...NORTHERN MIDDLE TENNESSEE...

CITY           SKY/WX    TMP DP  RH WIND       PRES   REMARKS
CLARKSVILLE    CLOUDY    85  73  67 NE6       29.94R HX  91
CROSSVILLE     CLOUDY    74  72  93 CALM      30.00R
GALLATIN       PTSUNNY   82  72  69 NW8       29.95R
DICKSON        SUNNY     84  73  69 N8        29.95S HX  90
LEBANON        SUNNY     87  70  57 N6        29.90  HX  92
NASHVILLE      PTSUNNY   88  70  55 N12       29.93R HX  93
WEST NASHVILLE SUNNY     86  66  51 NW8       29.92S
PORTLAND       SUNNY     86  72  62 N7        29.94F HX  92
ROCKWOOD       CLOUDY    79  71  76 N7        29.98
SMYRNA         MOSUNNY   88  72  58 N12       29.92  HX  94
SPARTA         SUNNY     90  73  58 CALM      29.92F HX  98
SPRINGFIELD    SUNNY     79  77  94 CALM      29.94S
$$
TNZ056-058-060-061-075>077-079-093>097-010000
...SOUTHERN MIDDLE TENNESSEE...

CITY           SKY/WX    TMP DP  RH WIND       PRES   REMARKS
COLUMBIA       SUNNY     88  79  74 NW3       29.91S HX 102
FAYETTEVILLE   MOSUNNY   86  72  62 VRB6G15   29.92S HX  92
LEWISBURG      MOSUNNY   78  71  79 VRB5      29.94
MCMINNVILLE    SUNNY     90  72  55 N7        29.93F HX  96
MURFREESBORO   CLEAR     91  69  48 N10       29.90S HX  95
SHELBYVILLE    PTSUNNY   82  73  74 CALM      29.93S
TULLAHOMA      SUNNY     82  66  57 NW6       29.94F
WINCHESTER     MOSUNNY   88  70  55 N6        29.92S HX  92
$$


...KEY TO REMARKS...
VSB - VISIBILITY IN MILES
WCI - WIND CHILL INDEX
HX  - HEAT INDEX





USA.gov is the U.S. government's official web portal to all federal, state and local government web resources and services.